Wind_Speed
35 35 33 33 31 30 30 29 27 27 27 26 25 24 22 19 18 17 15 13 12 11 9 8 8 7 6 7 7 7 8 9 10 9 8 8 8 8 8 8 8 8 8
35 36 35 35 34 32 30 30 29 29 28 27 28 28 25 23 20 19 17 16 14 13 11 10 9 8 8 8 8 8 9 9 10 9 9 9 8 9 9 9 8 8 8
34 34 35 35 35 34 33 32 31 30 29 28 28 29 28 26 23 21 20 19 17 15 14 12 11 10 10 10 9 9 9 10 10 10 10 9 9 9 10 9 8 8 8
32 33 34 34 35 35 34 33 33 32 31 30 29 29 29 27 25 24 23 21 19 18 17 15 14 13 12 11 11 10 10 10 11 11 10 10 10 9 10 10 9 9 8
30 31 32 33 34 34 34 34 34 33 33 32 31 30 30 29 28 27 25 23 22 21 19 18 17 15 14 14 13 13 12 12 11 11 11 11 10 10 10 10 10 10 9
28 30 31 32 33 34 34 35 34 33 33 33 32 31 30 30 29 29 27 26 24 23 22 21 19 18 17 16 15 15 14 14 13 12 12 12 11 11 10 10 10 10 10
26 28 29 30 32 33 33 34 34 34 34 34 32 32 31 31 30 29 29 28 27 26 25 24 22 21 20 19 18 17 16 15 15 14 14 13 13 12 12 11 11 11 11
23 25 27 28 30 31 32 32 34 34 34 33 33 32 32 32 31 31 30 30 30 28 27 25 25 23 22 21 20 19 18 17 17 16 15 15 14 14 13 13 13 13 13
20 22 23 25 27 29 30 31 32 33 34 35 34 33 33 34 33 33 32 31 31 30 29 27 26 25 24 23 23 21 20 19 19 18 17 16 16 15 15 15 15 15 15
18 20 21 23 25 27 28 29 31 32 33 34 35 34 34 33 34 33 33 32 32 32 31 29 29 28 27 26 25 24 23 22 21 20 20 19 18 17 17 17 16 17 17
17 18 19 21 22 24 26 27 29 30 31 33 33 34 35 35 34 33 33 33 33 33 32 30 30 31 30 28 27 26 25 24 23 22 22 21 21 20 20 19 19 19 19
15 16 17 18 20 22 24 26 27 29 30 32 33 33 34 35 35 34 33 34 34 34 33 33 32 31 31 30 30 28 27 26 25 25 24 24 23 22 22 22 21 21 21
13 13 14 15 17 19 21 24 26 27 29 30 32 33 34 34 34 34 34 34 35 35 34 33 33 32 31 31 31 30 29 29 28 26 26 26 25 24 24 23 23 22 22
12 11 12 13 15 17 18 20 23 25 26 27 29 31 33 34 34 35 35 35 35 35 34 33 33 33 32 31 31 31 30 30 29 28 27 27 26 26 26 25 25 24 24
13 11 11 11 12 14 15 17 19 22 24 25 27 28 31 33 34 35 36 35 35 34 33 33 33 34 33 32 31 32 31 31 30 30 29 28 28 27 27 26 26 26 26
14 12 11 10 9 10 13 15 16 18 21 23 24 26 28 31 32 33 35 35 35 34 33 32 32 33 33 32 32 32 32 31 31 31 30 30 30 29 29 29 29 29 28
15 13 11 10 9 9 10 12 13 15 17 19 22 24 26 27 30 31 32 33 34 35 34 33 32 32 33 32 32 32 31 32 32 32 31 31 31 31 30 30 30 29 29
17 15 13 11 10 9 9 10 11 13 15 17 19 22 24 26 28 29 31 32 32 34 33 33 32 32 33 33 32 32 31 31 31 32 32 31 31 31 31 31 31 30 30
19 17 15 13 11 10 9 9 10 11 13 15 17 19 21 24 25 27 29 30 30 31 31 32 31 31 32 32 32 32 32 31 31 31 31 31 32 32 32 32 32 32 31
20 18 17 15 14 12 10 9 9 9 10 12 14 15 17 20 22 23 26 27 29 30 30 30 30 31 31 31 32 32 32 31 31 31 31 32 32 32 32 32 31 31 31
21 20 18 17 16 13 11 10 9 8 8 9 11 13 14 17 19 21 23 25 26 27 28 29 29 30 31 30 31 32 32 31 31 31 32 32 32 32 32 32 31 31 31
23 21 20 19 18 16 13 10 9 7 6 7 8 10 12 14 16 18 20 21 23 25 26 28 29 28 28 29 30 31 31 31 30 30 31 31 31 31 30 30 30 30 30
24 23 21 20 19 18 14 11 9 8 7 6 5 7 9 11 14 17 18 19 21 23 24 26 27 27 27 28 28 29 30 30 29 29 29 29 30 30 30 29 29 30 30
23 23 23 21 20 19 16 13 11 9 8 6 4 5 6 8 10 13 15 17 19 20 22 23 25 26 27 26 26 27 27 28 28 28 29 28 28 27 28 28 28 28 27
22 22 22 22 21 20 18 15 12 10 9 8 6 4 5 6 8 10 13 15 17 19 21 22 23 23 24 25 25 25 26 27 27 26 27 28 27 27 27 27 27 26 26
22 21 21 21 21 20 18 16 13 11 10 9 7 5 4 5 7 8 10 12 15 16 18 20 21 22 22 23 24 24 25 26 26 26 26 27 27 27 27 27 26 26 25
Wind_Direction
260 262 259 255 255 253 251 251 249 248 244 243 242 240 240 241 238 235 236 237 236 234 233 231 232 227 221 211 202 198 193 189 190 191 189 189 191 195 196 197 200 204 208
261 259 259 256 255 255 254 253 253 252 248 244 240 238 238 240 239 234 235 236 236 233 231 230 229 227 222 216 212 209 203 201 197 198 200 199 201 202 203 205 211 213 215
261 259 258 257 256 256 254 252 251 251 251 248 243 240 238 239 238 235 233 235 235 233 231 230 229 227 225 220 218 214 208 204 203 206 206 207 209 210 209 210 215 220 224
260 258 256 255 255 255 255 253 251 249 250 248 244 241 239 238 237 236 233 233 233 233 231 230 230 228 227 224 221 217 214 211 211 211 210 211 214 215 216 221 226 227 231
261 259 257 254 253 253 252 252 252 250 249 248 244 241 240 237 235 236 233 231 232 232 232 231 230 230 229 228 225 223 222 220 218 217 216 216 219 221 222 227 231 232 238
262 259 257 254 252 251 250 250 251 248 247 247 245 241 239 239 236 237 235 232 230 231 230 230 230 230 230 230 228 227 227 226 224 223 223 222 223 224 227 228 232 237 242
265 260 256 254 252 250 249 249 249 247 246 247 245 242 239 239 237 235 236 234 231 231 229 229 229 230 230 231 231 230 229 229 229 228 227 227 228 229 230 232 237 242 247
269 262 258 255 252 250 249 250 248 246 245 245 244 242 240 237 236 236 235 233 231 230 230 229 229 230 231 231 232 232 232 231 231 231 230 229 232 233 236 238 242 247 251
274 267 260 256 253 251 249 249 248 246 244 244 242 241 240 239 238 237 236 235 233 231 230 228 228 228 229 231 233 234 234 233 233 234 234 234 235 237 240 244 248 251 255
278 270 263 258 254 251 249 248 247 246 244 243 242 241 241 240 237 235 236 236 234 231 229 229 232 229 230 230 233 234 235 235 236 236 238 238 240 243 245 250 252 256 259
284 275 266 260 256 252 249 248 245 245 244 242 241 241 240 240 238 235 235 235 234 231 229 231 231 231 230 231 232 234 236 236 237 238 240 241 244 246 249 253 256 258 261
294 282 271 263 258 255 251 248 246 245 244 242 240 239 239 239 237 237 237 236 233 231 231 232 232 233 231 232 233 234 235 237 238 240 241 242 245 248 252 255 258 261 263
307 295 281 268 261 257 254 249 247 246 245 243 242 240 239 238 236 236 237 235 234 232 232 233 234 234 234 233 233 233 235 237 238 240 242 243 246 250 253 256 259 262 263
327 310 295 280 270 263 257 252 249 248 245 244 242 241 239 238 237 236 236 236 236 234 233 234 233 234 234 234 233 233 236 237 239 241 243 245 247 249 252 255 258 261 263
345 332 316 297 281 270 261 255 252 250 247 244 243 241 239 236 236 236 236 236 235 235 235 234 233 232 234 235 235 236 237 238 239 241 243 245 247 250 253 255 258 261 263
355 348 337 320 302 283 269 260 255 252 250 247 244 242 240 237 235 236 237 236 235 235 237 233 234 233 233 235 236 237 238 239 239 242 245 247 248 251 254 256 260 261 262
2 358 350 338 322 301 282 269 260 256 252 247 243 242 240 239 237 236 236 235 236 236 238 237 237 234 234 236 238 240 240 241 241 243 246 248 250 253 255 257 259 260 262
8 3 356 348 337 319 300 282 270 262 255 250 245 242 240 240 239 237 235 234 235 236 238 238 238 237 237 237 238 239 241 242 243 245 246 249 251 253 255 257 258 260 262
9 6 3 359 349 335 318 299 284 273 262 254 249 244 241 241 239 236 235 234 234 235 235 237 240 240 238 239 240 239 240 242 244 246 247 249 251 253 256 257 258 260 262
11 8 6 2 356 347 336 320 304 286 271 259 252 248 244 241 239 237 237 236 235 235 235 238 240 240 240 240 241 241 241 242 245 247 249 250 253 254 254 255 257 260 262
13 12 10 5 2 356 348 337 323 302 287 271 259 252 248 242 239 239 239 237 235 236 236 239 241 242 242 242 242 243 244 245 246 246 249 251 254 255 256 256 257 259 260
14 13 11 9 7 4 359 353 343 330 308 288 269 258 251 245 241 240 239 238 236 235 237 240 241 244 244 243 243 245 246 246 246 246 249 251 253 254 256 256 257 257 259
15 14 12 12 11 10 5 1 356 352 342 318 284 266 261 252 244 240 240 240 238 236 238 239 241 243 243 243 244 245 246 247 247 247 249 251 252 253 253 254 256 258 259
14 15 15 15 15 14 12 8 6 2 358 349 318 280 263 254 244 241 240 240 241 239 238 238 240 241 242 243 245 246 246 247 249 250 249 250 251 252 252 253 254 255 255
10 11 13 14 14 15 16 15 11 8 2 356 341 313 284 268 255 247 244 242 240 238 236 236 238 240 244 245 245 246 247 247 248 248 248 249 250 252 253 255 255 255 255
8 9 9 12 13 13 14 14 12 6 2 358 350 333 306 281 270 260 251 244 242 242 241 237 236 238 241 241 241 246 249 249 249 249 250 250 252 252 253 254 253 252 251
Height
5837 5839 5841 5844 5846 5848 5850 5851 5854 5856 5859 5861 5863 5866 5868 5869 5872 5874 5875 5876 5878 5879 5880 5881 5882 5883 5884 5885 5886 5887 5888 5890 5891 5893 5894 5896 5897 5899 5900 5902 5903 5905 5906
5829 5831 5833 5835 5838 5840 5843 5845 5848 5850 5853 5855 5858 5860 5863 5865 5868 5870 5872 5874 5875 5877 5878 5879 5880 5881 5883 5884 5885 5886 5887 5889 5891 5892 5894 5895 5897 5898 5900 5901 5902 5903 5905
5820 5822 5824 5827 5830 5833 5836 5838 5840 5843 5846 5849 5851 5854 5857 5860 5863 5866 5868 5870 5872 5874 5876 5877 5879 5880 5881 5883 5884 5885 5886 5888 5890 5891 5893 5894 5896 5897 5899 5900 5901 5902 5903
5811 5813 5816 5819 5821 5824 5828 5830 5832 5836 5839 5842 5845 5848 5851 5855 5858 5861 5863 5866 5869 5871 5873 5875 5876 5878 5880 5881 5882 5884 5885 5887 5888 5890 5891 5893 5894 5896 5897 5898 5900 5901 5902
5802 5805 5807 5810 5812 5816 5819 5823 5826 5828 5832 5835 5838 5842 5845 5848 5852 5855 5858 5861 5864 5867 5869 5871 5873 5875 5877 5879 5881 5882 5883 5885 5887 5888 5890 5891 5893 5894 5896 5897 5898 5899 5900
5794 5796 5798 5801 5804 5807 5811 5814 5818 5821 5824 5828 5831 5835 5839 5842 5845 5849 5852 5856 5859 5862 5865 5867 5869 5872 5874 5876 5878 5880 5881 5883 5885 5886 5888 5889 5891 5892 5894 5895 5896 5897 5898
5786 5788 5790 5793 5795 5799 5802 5806 5810 5813 5817 5820 5824 5828 5832 5835 5839 5843 5847 5850 5854 5856 5859 5862 5865 5868 5870 5873 5875 5877 5879 5881 5882 5884 5886 5887 5889 5890 5892 5893 5894 5895 5896
5780 5781 5783 5785 5787 5790 5794 5798 5801 5805 5809 5812 5817 5820 5825 5829 5832 5836 5840 5844 5848 5851 5854 5856 5860 5863 5866 5869 5871 5874 5876 5878 5880 5881 5883 5884 5886 5888 5889 5890 5891 5892 5893
5774 5774 5776 5778 5780 5783 5786 5789 5793 5797 5801 5805 5808 5813 5818 5822 5825 5829 5833 5837 5841 5845 5848 5851 5854 5857 5861 5865 5867 5870 5872 5874 5876 5878 5880 5881 5883 5885 5886 5887 5888 5889 5890
5768 5769 5770 5771 5773 5776 5778 5781 5785 5788 5792 5796 5800 5805 5810 5814 5818 5822 5827 5830 5834 5838 5842 5845 5848 5851 5856 5860 5862 5865 5867 5870 5872 5874 5876 5878 5880 5881 5883 5884 5885 5886 5887
5763 5763 5764 5765 5767 5769 5771 5774 5777 5780 5783 5788 5792 5797 5801 5806 5810 5814 5819 5823 5827 5831 5835 5838 5842 5846 5850 5854 5857 5860 5863 5865 5868 5870 5872 5874 5876 5877 5879 5880 5881 5882 5883
5759 5758 5758 5759 5761 5762 5765 5767 5770 5773 5776 5780 5784 5788 5793 5797 5802 5806 5811 5815 5819 5824 5828 5832 5836 5839 5843 5847 5851 5854 5857 5860 5862 5865 5867 5869 5871 5873 5874 5875 5876 5877 5878
5755 5754 5753 5754 5755 5757 5758 5760 5763 5766 5769 5772 5776 5781 5785 5789 5793 5798 5803 5807 5812 5816 5821 5825 5829 5833 5837 5841 5844 5847 5850 5854 5857 5859 5861 5864 5866 5867 5869 5870 5871 5872 5873
5752 5751 5750 5750 5751 5752 5753 5755 5757 5759 5762 5765 5769 5773 5777 5781 5786 5790 5795 5800 5804 5808 5813 5818 5822 5826 5830 5833 5837 5840 5843 5847 5850 5853 5855 5858 5860 5862 5863 5865 5866 5867 5868
5751 5749 5748 5747 5746 5747 5748 5749 5751 5753 5756 5759 5762 5765 5769 5773 5778 5782 5787 5792 5797 5801 5805 5810 5814 5818 5822 5826 5830 5833 5836 5840 5843 5846 5849 5851 5854 5856 5857 5859 5860 5861 5862
5750 5748 5746 5745 5744 5744 5744 5745 5746 5748 5750 5753 5755 5759 5762 5766 5770 5774 5779 5783 5788 5793 5797 5801 5806 5810 5815 5819 5822 5825 5829 5832 5836 5839 5842 5844 5847 5849 5851 5852 5853 5855 5855
5751 5748 5745 5744 5742 5741 5741 5741 5742 5743 5745 5747 5749 5753 5756 5759 5763 5767 5771 5776 5780 5785 5790 5794 5798 5803 5807 5811 5814 5818 5821 5825 5828 5831 5834 5837 5839 5841 5843 5845 5846 5848 5848
5751 5748 5745 5743 5741 5739 5738 5738 5738 5739 5740 5742 5744 5747 5750 5753 5756 5760 5764 5769 5773 5778 5782 5786 5791 5795 5799 5803 5807 5811 5814 5817 5820 5823 5826 5829 5831 5834 5836 5837 5839 5840 5841
5752 5748 5745 5742 5740 5738 5737 5736 5735 5735 5736 5737 5739 5741 5744 5747 5750 5753 5758 5762 5766 5771 5775 5779 5783 5787 5792 5796 5799 5803 5806 5809 5812 5815 5818 5821 5823 5826 5828 5829 5831 5832 5833
5752 5749 5745 5742 5740 5737 5735 5734 5733 5732 5733 5733 5735 5737 5739 5741 5744 5747 5751 5755 5760 5764 5768 5772 5776 5780 5784 5788 5792 5795 5798 5801 5805 5807 5810 5813 5815 5817 5819 5821 5823 5824 5825
5754 5749 5746 5742 5739 5736 5734 5732 5731 5730 5730 5730 5731 5733 5735 5737 5739 5742 5746 5749 5753 5757 5761 5765 5769 5773 5776 5780 5784 5788 5791 5794 5796 5799 5802 5805 5807 5809 5811 5812 5814 5815 5817
5755 5751 5747 5743 5740 5736 5733 5731 5730 5729 5728 5728 5729 5730 5731 5733 5735 5738 5741 5744 5748 5751 5755 5759 5763 5766 5769 5773 5776 5780 5783 5786 5789 5792 5794 5796 5798 5800 5802 5804 5806 5807 5808
5757 5753 5749 5745 5741 5737 5734 5732 5730 5728 5728 5727 5727 5728 5729 5730 5732 5734 5736 5739 5742 5746 5749 5753 5756 5759 5763 5766 5769 5772 5775 5778 5781 5783 5785 5787 5790 5792 5794 5796 5797 5799 5800
5760 5755 5751 5746 5742 5738 5735 5732 5730 5729 5728 5727 5727 5727 5727 5728 5729 5731 5732 5735 5737 5740 5744 5747 5750 5753 5756 5759 5762 5765 5768 5770 5773 5775 5778 5780 5782 5784 5786 5788 5789 5791 5792
5762 5757 5753 5749 5745 5740 5736 5734 5732 5730 5729 5728 5727 5726 5726 5726 5727 5728 5729 5731 5733 5735 5738 5741 5744 5747 5750 5752 5755 5758 5761 5763 5765 5768 5770 5773 5775 5777 5778 5780 5782 5783 5785
5763 5759 5755 5751 5747 5743 5739 5736 5734 5732 5730 5728 5727 5726 5725 5725 5725 5725 5726 5727 5729 5731 5733 5736 5738 5741 5744 5747 5749 5752 5754 5756 5758 5761 5763 5766 5767 5769 5771 5773 5775 5776 5778